Location: Newark
(60.7728°N, 46.2261°E)
Time: 05:45:07
(UTC+00:00)

ISS - Pass Details

Date: 01 October 2019
Orbit: 411 x 421 km, 51.6° (Epoch: 21 October)

Event Time Altitude Azimuth Distance (km) Brightness Sun altitude
Rises 16:59:55 0° 258° (WSW) 2,348 0.8 -18.7°
Reaches altitude 10° 17:03:20 10° 221° (SW) 1,483 -0.9 -19.1°
Enters shadow 17:04:16 11° 205° (SSW) 1,423 -1.1 -19.2°
